User: anonymous   Login
Location: Kolin
(50.0330°N, 15.2000°E)
Time: 20:54:04
(UTC+02:00)
Language:

Gurwin Techsat 1B - Orbit

View from above orbital plane
View from above orbital plane
View from above satellite
View from above satellite

Ground track
Ground track

The orbit data is extracted from the following two-line orbital elements,

1 25397U 98043D   22225.49291850  .00000020  00000-0  28671-4 0  9991
2 25397  98.8208 176.1222 0000775   4.8997 355.2189 14.23765346251541
Epoch (UTC): 13 August 2022 11:49:48
Eccentricity: 0.0000775
inclination: 98.8208°
perigee height: 812 km
apogee height: 813 km
right ascension of ascending node: 176.1222°
argument of perigee: 4.8997°
revolutions per day: 14.23765346
mean anomaly at epoch: 355.2189°
orbit number at epoch: 25154

The dashed part of the orbit path shows where the satellite is in the earth's shadow,  

DLR